EHI
3 9 17 19 14 6 1 0 0 0 0 0 1 1 0 0 1 2 5 9 10 5 1 1 2 1 0 0 0 0 0 0 0 0 0 0 1 2 3 3 2 2 1 0 0 0 0 0 0
2 7 12 12 8 3 0 0 0 0 0 0 1 2 1 0 2 4 6 8 6 3 0 1 2 1 0 0 0 0 0 0 0 0 0 0 1 2 3 3 1 1 0 0 0 0 0 0 0
1 4 6 5 2 0 0 0 0 0 0 0 1 1 1 1 4 5 6 5 3 2 2 2 2 1 0 0 0 0 0 0 0 0 0 0 0 1 2 2 1 0 0 0 0 0 0 0 0
0 1 2 1 0 0 0 0 0 0 0 1 1 1 1 2 5 7 5 3 2 4 4 2 2 1 0 0 0 0 0 0 0 0 0 0 0 0 1 1 0 0 0 0 0 0 0 0 0
0 0 0 0 0 0 0 0 0 0 1 2 2 1 1 4 6 6 4 3 4 6 5 3 2 1 0 0 0 0 0 0 0 0 0 0 1 0 0 0 0 0 0 0 0 0 0 0 0
0 0 0 0 0 0 0 0 0 0 1 3 3 2 3 5 7 5 3 3 5 8 6 3 2 1 0 0 0 0 0 0 0 0 0 0 0 0 0 0 0 0 0 0 0 0 0 0 0
0 0 0 0 0 0 0 0 0 1 2 3 3 4 5 7 7 6 4 4 7 9 6 2 1 1 0 0 0 0 0 0 0 0 0 0 0 0 0 0 0 0 0 0 0 0 0 0 0
0 0 0 0 0 0 0 0 1 1 3 3 3 6 9 10 8 7 6 8 10 9 5 1 0 0 0 0 0 0 0 0 0 0 0 0 0 0 0 0 0 0 0 0 0 0 0 0 0
0 0 0 0 0 0 0 0 1 2 3 3 4 9 14 13 10 8 8 10 13 10 6 2 1 0 0 1 1 1 0 0 0 0 0 0 0 1 1 1 0 0 0 0 0 0 0 0 0
0 0 0 0 0 0 0 0 1 2 5 9 12 14 15 13 12 11 10 12 13 11 8 5 2 1 1 2 2 1 1 2 2 1 0 0 0 2 3 2 1 0 0 0 0 0 0 0 0
0 0 0 0 0 0 0 0 0 2 8 17 23 21 16 16 17 15 13 13 14 11 8 6 5 4 5 5 3 3 4 5 5 4 2 0 1 3 5 4 2 0 0 0 0 0 0 1 1
0 0 0 0 0 0 0 0 1 3 11 24 30 25 18 19 20 17 15 14 13 11 9 9 9 9 9 7 4 3 5 6 8 9 4 0 2 4 6 7 4 2 1 1 1 0 0 0 0
0 0 0 0 0 0 0 0 1 4 14 26 29 24 18 20 23 22 20 18 15 12 13 15 15 14 12 9 7 5 6 8 11 11 6 2 4 6 8 8 6 3 2 2 1 0 0 1 1
0 0 0 0 0 0 0 1 1 6 14 22 24 21 18 21 27 30 30 28 23 17 18 21 21 19 15 11 9 6 6 9 12 14 12 6 5 8 9 9 7 4 2 3 2 0 1 2 2
0 0 0 0 0 0 0 2 3 8 14 18 19 19 21 27 32 36 37 35 31 28 28 27 24 22 19 13 9 6 6 8 12 17 18 12 9 10 11 9 7 5 3 3 3 2 2 2 1
0 0 0 0 0 0 1 3 6 9 12 16 19 22 28 35 40 43 43 40 40 43 44 36 28 29 26 18 11 7 7 9 13 19 21 18 14 13 12 9 8 8 5 3 4 4 3 2 1
0 0 0 0 0 0 1 4 7 7 10 15 20 28 38 45 50 54 53 49 52 58 57 46 40 41 35 24 15 11 10 12 14 17 21 22 20 17 15 12 12 11 9 6 5 6 5 2 1
0 0 0 0 0 0 1 4 6 5 6 12 21 33 44 52 59 64 62 60 62 66 65 58 55 54 44 30 20 15 16 17 17 18 24 27 24 21 18 16 15 14 13 10 7 8 7 4 3
0 0 0 0 0 0 2 4 5 4 4 11 24 37 47 55 62 68 69 68 69 72 72 69 66 62 51 38 28 23 24 26 23 23 30 32 27 22 19 18 17 16 14 12 10 10 9 7 5
0 0 0 0 0 0 2 5 6 5 4 12 25 38 48 57 65 72 74 74 75 78 78 74 70 64 55 45 35 31 32 32 27 28 34 34 28 22 19 19 18 16 14 13 14 13 12 9 7
0 0 0 0 0 0 1 6 9 7 5 10 20 31 43 56 66 73 79 81 82 83 82 78 74 67 59 50 40 37 39 37 33 34 37 35 29 24 21 20 20 18 15 16 17 16 14 11 10
0 0 0 0 0 0 1 4 9 9 7 8 15 22 33 49 64 73 81 86 88 88 87 85 82 76 66 55 46 43 43 42 41 42 42 39 33 27 23 23 24 21 16 17 18 17 15 14 13
0 0 0 0 0 0 0 2 6 9 9 9 12 16 24 40 59 72 81 87 90 90 90 90 88 84 75 63 55 50 47 46 46 48 49 45 37 30 25 28 31 27 21 19 19 18 17 16 15
0 0 0 0 0 0 0 1 3 7 8 9 12 15 19 32 53 71 81 86 89 90 91 92 91 88 81 73 65 58 52 51 52 52 50 45 39 35 33 35 39 37 30 26 24 21 19 17 16
0 0 0 0 0 0 0 0 1 4 6 8 12 15 19 29 49 69 82 86 88 90 92 94 94 90 84 78 73 67 58 55 54 52 45 41 40 42 43 45 48 46 38 33 29 26 23 21 20
0 0 0 0 0 0 0 0 0 2 5 7 9 13 19 29 44 64 78 85 87 88 92 94 94 91 86 81 77 73 67 59 54 50 44 41 41 44 48 51 51 49 41 35 35 33 29 27 27
0 0 0 0 0 0 0 0 0 2 4 6 7 10 17 26 39 56 72 82 84 86 88 92 92 90 87 82 80 79 75 66 57 52 49 45 42 43 47 49 49 47 41 38 40 39 35 33 33
0 0 0 0 0 0 0 0 1 1 3 4 7 11 16 23 34 50 67 77 82 83 86 89 91 90 87 84 82 82 79 72 63 57 56 52 46 46 49 47 46 45 43 42 42 40 35 34 36
0 0 0 0 0 0 1 2 2 3 5 7 10 13 16 20 31 46 61 72 77 80 82 86 88 89 88 85 82 81 80 75 67 63 63 61 56 55 53 50 47 45 44 43 42 37 33 33 33
0 0 0 0 0 1 2 3 3 6 8 11 14 16 16 21 31 43 55 66 73 77 79 82 86 88 87 84 80 77 78 75 70 67 68 67 65 62 58 53 49 46 45 43 41 37 33 31 30
Wind_Speed
12 14 11 7 3 1 13 16 15 14 15 15 15 16 18 17 14 14 13 17 18 17 15 14 14 15 15 16 16 16 17 17 17 17 17 17 17 18 18 18 17 17 17 17 16 16 16 15 14
12 16 9 5 1 6 13 14 15 14 14 14 17 19 19 18 17 16 15 16 18 17 14 14 15 15 15 15 15 16 16 16 16 16 16 17 17 17 17 17 17 17 17 16 16 16 15 14 13
14 15 7 3 5 9 14 13 13 13 13 14 17 17 14 14 16 15 16 17 17 17 16 15 15 15 15 15 14 15 15 16 16 15 16 16 16 16 17 16 16 16 15 15 15 15 14 12 11
10 8 5 1 10 12 13 12 12 13 13 14 15 14 14 14 16 17 17 17 18 18 16 15 15 15 15 15 14 15 15 15 15 15 15 15 16 16 16 16 16 15 14 14 14 14 12 11 9
9 7 2 3 10 12 12 11 12 12 14 17 18 17 15 16 17 17 16 16 17 18 16 15 15 15 15 14 14 15 15 15 14 15 14 15 15 15 15 15 14 14 13 13 13 12 11 9 7
7 5 2 3 9 12 11 10 12 13 15 17 19 18 14 15 15 15 15 15 17 18 17 14 15 15 14 14 14 14 14 14 14 14 14 14 14 15 14 14 14 13 13 13 12 11 10 8 5
9 6 3 4 9 12 11 9 11 11 12 13 17 16 14 14 13 13 13 14 16 17 16 14 13 13 13 13 13 13 13 13 13 13 13 14 14 14 14 13 13 12 12 12 11 10 9 7 4
8 6 4 4 8 12 11 10 12 12 12 12 13 12 15 15 14 14 12 13 14 14 14 14 13 12 11 11 12 12 12 12 11 11 11 12 13 13 13 12 11 11 11 10 10 9 8 5 2
10 7 3 4 7 11 11 11 12 12 11 10 12 16 19 19 17 15 13 12 12 12 11 13 13 11 11 12 12 11 11 10 10 9 9 8 7 9 8 12 11 10 10 9 9 8 7 5 3
7 3 2 5 7 9 10 10 11 11 12 13 17 20 20 18 16 14 13 13 12 11 10 10 10 10 10 10 9 7 7 7 5 5 6 4 3 5 9 11 10 9 8 8 7 7 6 5 3
5 2 1 4 6 5 8 9 9 11 11 14 20 21 19 17 15 13 12 12 11 10 10 10 8 5 8 7 7 4 4 5 4 5 5 4 4 5 6 5 6 6 7 5 6 6 5 4 2
6 3 2 2 4 3 4 7 9 11 12 17 20 20 18 17 15 13 11 11 11 9 9 10 9 4 4 5 5 5 5 4 4 5 4 4 2 2 3 2 4 4 3 3 3 2 1 1 1
8 5 3 2 3 2 3 6 8 13 16 18 20 19 17 16 15 13 12 12 11 8 9 9 7 6 4 3 2 4 4 5 5 4 3 3 3 3 3 1 1 1 2 2 1 1 2 2 1
7 6 5 5 4 5 5 7 8 12 17 18 18 17 16 16 15 14 13 11 11 10 10 9 8 7 4 3 1 2 3 3 4 4 4 3 2 3 3 2 1 1 2 2 2 2 2 1 1
8 8 9 9 8 7 6 6 9 12 16 17 17 16 15 15 14 14 12 11 12 10 10 9 8 8 5 4 3 2 3 4 4 4 4 3 3 3 2 2 1 1 2 2 1 1 1 2 2
10 11 12 12 10 9 8 6 9 13 15 15 16 15 15 13 14 13 13 11 11 10 10 9 9 10 6 4 3 2 2 3 4 4 4 3 3 2 2 1 1 2 2 2 1 1 1 1 1
12 14 14 12 12 10 9 7 8 11 14 15 15 15 15 14 14 13 14 13 11 10 10 8 7 10 8 6 4 2 2 2 3 4 4 4 3 3 1 1 1 1 1 1 1 1 1 1 1
13 15 15 13 13 11 8 8 11 13 12 14 15 15 15 15 14 14 14 14 12 11 10 8 7 8 8 6 3 2 3 2 2 3 4 5 4 3 2 2 2 1 1 1 1 0 1 1 2
14 13 13 10 11 10 9 9 11 12 12 13 14 15 15 14 15 15 14 14 13 12 11 10 8 7 6 5 5 4 4 3 3 4 5 5 4 4 2 1 2 1 1 1 2 1 2 2 2
16 15 13 8 9 8 7 9 10 9 11 12 13 14 16 15 15 15 14 14 14 13 12 10 9 9 8 5 4 4 4 4 3 3 4 5 4 4 4 3 2 2 2 2 2 1 2 2 1
15 15 13 10 8 9 9 11 11 12 12 12 13 13 15 17 16 16 16 15 15 14 14 12 11 10 9 8 5 4 3 2 3 4 4 4 5 4 3 4 3 2 3 3 3 3 3 2 2
14 14 13 11 9 8 11 9 11 12 12 12 13 13 13 15 17 17 17 16 15 15 14 11 11 10 9 8 7 7 6 5 5 4 4 4 5 4 4 4 3 3 2 2 4 4 3 3 3
14 11 11 12 11 11 12 12 9 11 11 13 13 13 13 15 17 18 17 16 15 15 14 12 11 10 10 9 8 7 6 5 4 4 5 4 4 4 5 5 4 3 3 3 3 1 3 2 3
11 10 9 11 11 14 13 12 9 9 13 14 14 13 12 13 15 16 16 14 14 14 14 14 12 11 10 10 9 8 7 5 5 4 5 5 4 4 6 5 4 4 4 3 3 3 4 3 3
13 11 8 10 10 12 13 13 9 7 10 10 10 10 11 11 12 14 16 16 14 14 14 13 13 12 11 11 9 9 7 6 6 5 5 5 4 4 5 6 5 4 4 4 3 4 4 4 4
15 15 11 9 10 10 13 13 9 7 7 7 7 7 9 10 10 13 16 15 15 15 13 13 14 13 12 11 10 8 8 6 5 6 5 4 3 3 4 5 5 5 5 5 4 3 4 4 4
16 16 16 12 13 10 10 11 8 7 7 7 7 6 6 9 10 12 15 15 14 14 14 14 13 13 12 11 10 9 8 7 6 5 5 4 3 4 4 5 5 5 5 4 4 3 4 3 4
15 14 11 11 10 11 10 11 10 11 9 7 7 7 6 6 8 9 10 12 12 11 12 12 12 12 11 10 9 9 8 8 6 5 5 4 4 3 3 4 4 4 4 4 4 3 3 3 3
15 15 12 10 11 11 8 4 3 8 9 9 8 7 6 5 6 7 7 8 10 11 12 11 11 11 11 10 9 7 8 8 7 5 5 5 4 4 4 4 4 4 4 4 3 4 3 4 3
14 14 13 10 9 10 9 3 4 5 5 6 6 5 5 3 4 6 7 7 8 9 10 10 10 10 10 9 8 7 6 7 7 6 5 5 5 4 4 4 4 4 4 4 4 5 4 3 3
Wind_Direction
281 269 250 256 263 41 68 70 69 69 66 61 59 67 62 56 75 94 112 111 109 108 107 100 94 92 91 91 91 92 92 91 90 91 91 92 92 92 94 94 94 95 95 95 93 94 94 95 97
289 283 262 244 357 67 70 72 72 71 75 73 69 72 74 74 88 104 111 112 112 112 108 101 99 96 94 93 94 94 94 93 92 92 92 93 94 93 95 95 95 95 96 96 96 96 96 96 98
276 270 272 233 65 73 77 78 84 84 81 82 78 67 70 89 97 107 116 118 113 108 104 103 102 99 97 95 95 97 96 95 94 94 94 94 94 94 94 94 94 94 95 95 96 96 96 96 96
274 265 241 19 79 75 82 89 92 89 83 84 87 82 78 89 104 116 123 120 115 111 108 107 105 102 100 97 97 100 98 97 97 96 96 97 96 96 95 95 96 97 97 97 98 97 96 96 92
261 263 265 68 85 83 82 82 88 87 86 88 91 94 90 98 113 124 125 123 118 113 113 113 109 106 102 100 99 102 100 99 98 98 98 99 99 99 98 98 98 99 100 99 98 97 96 94 88
273 269 300 95 99 92 86 87 90 89 96 105 107 104 103 115 125 130 127 120 116 116 115 116 113 110 106 104 102 103 102 101 102 102 101 101 102 102 102 101 100 99 100 100 100 99 98 96 86
276 297 277 120 103 98 93 90 88 94 102 105 110 111 121 131 132 124 123 120 119 120 124 128 125 118 113 109 108 107 106 105 106 106 107 107 107 107 105 103 103 101 102 104 105 106 107 105 94
283 289 294 97 101 99 98 93 92 94 94 107 114 120 138 141 137 128 125 118 118 123 131 133 134 133 131 123 118 115 114 114 115 116 117 118 117 116 115 111 107 107 108 110 114 118 121 124 130
273 286 306 82 102 108 110 104 100 96 98 87 87 119 138 145 141 135 129 125 124 127 132 134 137 147 142 134 131 131 127 128 131 131 133 139 139 131 128 113 118 118 120 124 128 134 142 157 189
255 278 342 69 87 107 116 116 119 116 111 101 101 117 135 145 143 143 143 141 135 135 138 134 140 151 145 136 140 152 146 149 159 141 154 165 128 118 118 126 132 136 139 145 151 159 174 200 198
270 262 318 88 87 100 120 120 118 121 123 129 130 136 145 147 146 149 148 139 135 142 144 134 135 140 137 133 152 148 137 146 153 141 145 140 132 133 130 146 148 159 167 174 167 189 206 202 191
265 279 327 58 91 113 112 112 106 106 117 129 134 142 148 152 152 152 146 139 145 154 143 132 132 120 109 126 136 145 144 152 146 146 160 141 140 135 133 152 166 169 167 165 166 195 149 124 105
253 252 219 215 170 142 121 114 107 108 116 125 135 146 154 156 155 153 152 148 149 149 139 127 131 122 104 91 130 142 136 139 132 140 138 132 134 119 112 106 110 133 129 146 142 105 85 76 70
256 256 236 221 199 181 172 144 136 124 127 133 143 153 161 158 158 155 155 152 152 158 146 133 137 128 121 119 100 99 118 120 131 130 122 124 112 114 118 117 67 71 80 83 102 118 123 111 81
263 259 243 224 207 193 185 169 143 138 139 144 152 159 161 159 159 159 158 157 158 158 145 141 145 141 149 158 175 153 147 140 126 118 127 140 129 128 135 128 137 127 110 106 103 122 151 166 158
238 243 240 218 202 193 203 182 148 155 153 155 160 162 162 160 164 161 158 160 156 153 147 156 162 151 158 166 182 183 154 135 135 136 138 138 129 140 145 143 152 147 153 150 149 202 191 155 161
226 231 235 211 195 196 202 167 163 182 169 164 164 164 164 164 169 161 161 164 159 153 151 160 160 154 163 167 174 193 132 126 140 136 138 144 147 157 150 127 121 184 170 152 192 131 225 198 185
220 224 228 216 187 202 204 177 172 192 179 172 169 168 168 170 173 166 165 164 160 156 155 161 165 157 161 163 174 193 173 166 154 137 145 151 163 171 167 172 181 214 144 119 88 77 286 275 243
251 250 245 223 175 198 207 188 183 193 189 181 174 173 171 173 174 170 168 167 163 161 162 166 171 162 164 170 179 185 185 184 172 166 156 161 171 171 189 171 167 196 179 166 191 215 233 252 254
251 256 256 232 175 193 216 208 200 198 209 188 182 179 172 172 174 171 171 171 169 167 168 170 174 172 179 177 184 185 181 183 178 158 156 172 172 178 191 183 199 179 185 195 208 225 254 256 231
244 248 251 242 206 205 224 222 211 201 213 201 190 183 177 174 174 175 177 177 175 174 175 179 180 175 184 177 181 188 170 188 171 167 171 185 183 191 206 182 205 195 199 190 207 216 234 257 258
239 244 254 252 232 228 228 231 210 202 204 207 193 189 183 178 176 179 181 181 181 178 178 178 176 176 181 183 187 186 182 194 190 178 173 184 189 193 202 199 199 213 228 194 214 205 220 237 261
240 246 250 255 247 246 236 241 231 194 201 215 197 190 191 182 179 180 183 181 183 181 178 178 175 177 179 189 194 196 196 194 180 173 168 181 189 202 208 203 201 208 226 224 225 203 236 236 242
236 239 242 252 249 239 240 244 237 208 195 208 200 190 190 184 180 175 178 175 181 181 180 177 175 178 180 190 194 199 207 196 185 183 175 189 190 203 211 208 197 207 220 221 217 218 239 245 254
223 221 213 220 228 237 235 237 237 206 187 204 197 188 183 183 178 170 171 175 178 181 179 173 172 179 184 191 196 197 206 202 194 198 196 201 202 202 205 207 195 207 210 216 220 214 237 238 247
213 220 223 222 224 230 226 228 229 194 179 180 176 188 183 178 182 174 172 173 178 181 177 174 172 179 186 193 195 196 196 203 207 209 212 207 217 211 197 199 198 207 212 220 210 223 229 225 233
212 221 233 248 264 257 230 211 200 181 186 176 171 186 195 182 176 178 173 173 177 179 179 180 173 178 185 192 191 194 195 203 210 201 208 212 213 213 200 203 203 209 211 220 206 226 235 225 225
232 219 230 244 257 262 248 214 199 176 178 180 182 183 191 178 170 170 168 167 169 175 177 176 174 177 183 188 191 194 196 202 207 207 206 211 212 221 208 213 208 214 214 214 213 225 219 222 233
221 227 231 238 246 253 255 254 191 162 171 183 187 173 167 167 160 151 153 163 165 170 172 172 173 174 179 187 191 194 189 194 200 205 206 209 209 216 211 212 210 212 212 215 216 230 223 220 231
224 227 226 233 239 255 263 246 51 110 145 170 158 135 129 139 135 142 147 159 164 165 167 167 172 176 178 182 184 193 190 188 195 200 205 208 202 205 207 209 215 219 216 211 211 225 226 222 229